Time,TemperatureF,DewpointF,PressureIn,WindDirection,WindDirectionDegrees,WindSpeedMPH,WindSpeedGustMPH,Humidity,HourlyPrecipIn,Conditions,Clouds,dailyrainin,SoftwareType,DateUTC
2013-01-01 00:00:00,45.7,29.1,30.09,WNW,287,1.0,4.0,52,0.00,,---,0.00,VWS V14.01,2013-01-01 05:00:00,
2013-01-01 00:05:00,45.9,29.3,30.09,WNW,291,0.0,4.0,52,0.00,,---,0.00,VWS V14.01,2013-01-01 05:05:00,
2013-01-01 00:11:00,46.0,28.9,30.09,NW,307,0.0,6.0,51,0.00,,---,0.00,VWS V14.01,2013-01-01 05:11:00,
2013-01-01 00:16:00,46.1,29.0,30.08,NNW,340,1.0,6.0,51,0.00,,---,0.00,VWS V14.01,2013-01-01 05:16:00,
2013-01-01 00:21:00,46.3,29.2,30.09,WSW,242,1.0,6.0,51,0.00,,---,0.00,VWS V14.01,2013-01-01 05:21:00,
2013-01-01 00:26:00,46.3,29.6,30.08,WNW,284,1.0,1.0,52,0.00,,---,0.00,VWS V14.01,2013-01-01 05:26:00,
2013-01-01 00:30:00,46.3,29.2,30.08,NW,307,0.0,6.0,51,0.00,,---,0.00,VWS V14.01,2013-01-01 05:30:00,
2013-01-01 00:36:00,46.3,28.7,30.08,SSW,195,1.0,2.0,50,0.00,,---,0.00,VWS V14.01,2013-01-01 05:36:00,
2013-01-01 00:41:00,46.3,29.2,30.07,SW,225,0.0,2.0,51,0.00,,---,0.00,VWS V14.01,2013-01-01 05:41:00,
2013-01-01 00:46:00,46.2,29.1,30.08,SW,225,0.0,2.0,51,0.00,,---,0.00,VWS V14.01,2013-01-01 05:46:00,
2013-01-01 00:51:00,46.0,28.9,30.08,SSE,154,0.0,2.0,51,0.00,,---,0.00,VWS V14.01,2013-01-01 05:51:00,
2013-01-01 00:56:00,45.9,29.3,30.06,WSW,250,1.0,1.0,52,0.00,,---,0.00,VWS V14.01,2013-01-01 05:56:00,
2013-01-01 01:00:00,45.9,29.3,30.06,WSW,250,1.0,2.0,52,0.00,,---,0.00,VWS V14.01,2013-01-01 06:00:00,
2013-01-01 01:01:00,45.7,29.1,30.07,South,171,0.0,1.0,52,0.00,,---,0.00,VWS V14.01,2013-01-01 06:01:00,
2013-01-01 01:06:00,45.6,29.5,30.07,South,171,1.0,1.0,53,0.00,,---,0.00,VWS V14.01,2013-01-01 06:06:00,
2013-01-01 01:11:00,45.5,29.4,30.07,SW,217,1.0,2.0,53,0.00,,---,0.00,VWS V14.01,2013-01-01 06:11:00,
2013-01-01 01:16:00,45.4,29.3,30.06,SSE,155,0.0,2.0,53,0.00,,---,0.00,VWS V14.01,2013-01-01 06:16:00,
2013-01-01 01:21:00,45.3,29.6,30.06,SSE,159,1.0,2.0,54,0.00,,---,0.00,VWS V14.01,2013-01-01 06:21:00,
2013-01-01 01:26:00,45.3,29.6,30.06,SW,220,0.0,0.0,54,0.00,,---,0.00,VWS V14.01,2013-01-01 06:26:00,
2013-01-01 01:30:00,45.3,29.6,30.06,SW,221,0.0,2.0,54,0.00,,---,0.00,VWS V14.01,2013-01-01 06:30:00,
2013-01-01 01:31:00,45.3,29.6,30.06,WNW,296,0.0,2.0,54,0.00,,---,0.00,VWS V14.01,2013-01-01 06:31:00,
2013-01-01 01:36:00,45.3,29.6,30.06,WNW,296,0.0,2.0,54,0.00,,---,0.00,VWS V14.01,2013-01-01 06:36:00,
2013-01-01 01:46:00,45.2,29.6,30.06,WNW,296,0.0,2.0,54,0.00,,---,0.00,VWS V14.01,2013-01-01 06:46:00,
2013-01-01 01:51:00,45.1,29.5,30.06,WNW,296,0.0,2.0,54,0.00,,---,0.00,VWS V14.01,2013-01-01 06:51:00,
2013-01-01 01:56:00,45.1,30.4,30.06,WNW,296,0.0,0.0,56,0.00,,---,0.00,VWS V14.01,2013-01-01 06:56:00,
2013-01-01 02:00:00,45.1,30.4,30.06,WNW,296,0.0,2.0,56,0.00,,---,0.00,VWS V14.01,2013-01-01 07:00:00,
2013-01-01 02:01:00,44.9,30.2,30.06,WNW,295,0.0,1.0,56,0.00,,---,0.00,VWS V14.01,2013-01-01 07:01:00,
2013-01-01 02:06:00,44.8,30.5,30.06,WNW,296,0.0,1.0,57,0.00,,---,0.00,VWS V14.01,2013-01-01 07:06:00,
2013-01-01 02:11:00,44.6,30.3,30.06,WNW,296,0.0,1.0,57,0.00,,---,0.00,VWS V14.01,2013-01-01 07:11:00,
2013-01-01 02:16:00,44.4,30.6,30.05,WNW,296,0.0,1.0,58,0.00,,---,0.00,VWS V14.01,2013-01-01 07:16:00,
2013-01-01 02:21:00,44.3,30.5,30.05,WNW,296,0.0,1.0,58,0.00,,---,0.00,VWS V14.01,2013-01-01 07:21:00,
2013-01-01 02:26:00,44.2,31.2,30.04,WNW,296,0.0,0.0,60,0.00,,---,0.00,VWS V14.01,2013-01-01 07:26:00,
2013-01-01 02:30:00,44.2,31.2,30.04,WNW,296,0.0,1.0,60,0.00,,---,0.00,VWS V14.01,2013-01-01 07:30:00,
2013-01-01 02:31:00,44.0,31.8,30.05,WNW,296,0.0,0.0,62,0.00,,---,0.00,VWS V14.01,2013-01-01 07:31:00,
2013-01-01 02:36:00,43.8,31.6,30.04,WNW,296,0.0,0.0,62,0.00,,---,0.00,VWS V14.01,2013-01-01 07:36:00,
2013-01-01 02:41:00,43.7,32.0,30.04,WNW,295,0.0,1.0,63,0.00,,---,0.00,VWS V14.01,2013-01-01 07:41:00,
2013-01-01 02:46:00,43.5,31.4,30.05,WNW,296,0.0,1.0,62,0.00,,---,0.00,VWS V14.01,2013-01-01 07:46:00,
2013-01-01 02:51:00,43.4,30.9,30.04,WNW,296,0.0,1.0,61,0.00,,---,0.00,VWS V14.01,2013-01-01 07:51:00,
2013-01-01 02:56:00,43.3,31.2,30.04,WNW,296,0.0,0.0,62,0.00,,---,0.00,VWS V14.01,2013-01-01 07:56:00,
2013-01-01 03:00:00,43.3,31.2,30.04,WNW,296,0.0,1.0,62,0.00,,---,0.00,VWS V14.01,2013-01-01 08:00:00,
2013-01-01 03:01:00,43.2,31.1,30.04,WNW,296,0.0,0.0,62,0.00,,---,0.00,VWS V14.01,2013-01-01 08:01:00,
2013-01-01 03:06:00,43.1,31.4,30.04,WNW,296,0.0,0.0,63,0.00,,---,0.00,VWS V14.01,2013-01-01 08:06:00,
2013-01-01 03:11:00,43.0,31.7,30.04,WNW,296,0.0,0.0,64,0.00,,---,0.00,VWS V14.01,2013-01-01 08:11:00,
2013-01-01 03:16:00,42.9,31.6,30.04,WNW,296,0.0,0.0,64,0.00,,---,0.00,VWS V14.01,2013-01-01 08:16:00,
2013-01-01 03:21:00,42.9,32.3,30.03,WNW,296,0.0,0.0,66,0.00,,---,0.00,VWS V14.01,2013-01-01 08:21:00,
2013-01-01 03:26:00,42.7,31.8,30.04,WNW,296,0.0,0.0,65,0.00,,---,0.00,VWS V14.01,2013-01-01 08:26:00,
2013-01-01 03:30:00,42.8,32.2,30.04,WNW,296,0.0,0.0,66,0.00,,---,0.00,VWS V14.01,2013-01-01 08:30:00,
2013-01-01 03:31:00,42.8,31.9,30.06,WNW,296,0.0,0.0,65,0.00,,---,0.00,VWS V14.01,2013-01-01 08:31:00,
2013-01-01 03:36:00,42.9,32.0,30.05,NNW,346,0.0,1.0,65,0.00,,---,0.00,VWS V14.01,2013-01-01 08:36:00,
2013-01-01 03:41:00,42.9,33.1,30.05,NNW,346,1.0,1.0,68,0.00,,---,0.00,VWS V14.01,2013-01-01 08:41:00,
2013-01-01 03:46:00,42.8,32.6,30.05,WNW,292,0.0,1.0,67,0.00,,---,0.00,VWS V14.01,2013-01-01 08:46:00,
2013-01-01 03:51:00,42.7,32.5,30.04,WNW,294,0.0,1.0,67,0.00,,---,0.00,VWS V14.01,2013-01-01 08:51:00,
2013-01-01 03:56:00,42.7,33.2,30.04,WNW,293,0.0,0.0,69,0.00,,---,0.00,VWS V14.01,2013-01-01 08:56:00,
2013-01-01 04:00:00,42.7,32.9,30.04,WNW,294,0.0,1.0,68,0.00,,---,0.00,VWS V14.01,2013-01-01 09:00:00,
2013-01-01 04:01:00,42.7,33.6,30.03,WNW,293,0.0,0.0,70,0.00,,---,0.00,VWS V14.01,2013-01-01 09:01:00,
2013-01-01 04:06:00,42.6,33.9,30.03,WNW,293,0.0,0.0,71,0.00,,---,0.00,VWS V14.01,2013-01-01 09:06:00,
2013-01-01 04:11:00,42.4,33.3,30.02,WNW,293,0.0,0.0,70,0.00,,---,0.00,VWS V14.01,2013-01-01 09:11:00,
2013-01-01 04:16:00,42.4,33.7,30.03,WNW,293,0.0,0.0,71,0.00,,---,0.00,VWS V14.01,2013-01-01 09:16:00,
2013-01-01 04:21:00,42.3,33.6,30.03,WNW,294,0.0,0.0,71,0.00,,---,0.00,VWS V14.01,2013-01-01 09:21:00,
2013-01-01 04:26:00,42.2,32.8,30.03,WNW,293,0.0,0.0,69,0.00,,---,0.00,VWS V14.01,2013-01-01 09:26:00,
2013-01-01 04:30:00,42.2,33.5,30.03,WNW,293,0.0,0.0,71,0.00,,---,0.00,VWS V14.01,2013-01-01 09:30:00,
2013-01-01 04:31:00,42.3,33.6,30.04,WNW,294,0.0,0.0,71,0.00,,---,0.00,VWS V14.01,2013-01-01 09:31:00,
2013-01-01 04:36:00,42.3,33.9,30.04,WNW,294,0.0,0.0,72,0.00,,---,0.00,VWS V14.01,2013-01-01 09:36:00,
2013-01-01 04:41:00,42.3,33.9,30.03,WNW,294,0.0,0.0,72,0.00,,---,0.00,VWS V14.01,2013-01-01 09:41:00,
2013-01-01 04:46:00,42.3,33.9,30.03,WNW,293,0.0,0.0,72,0.00,,---,0.00,VWS V14.01,2013-01-01 09:46:00,
2013-01-01 04:51:00,42.2,33.8,30.03,WNW,294,0.0,0.0,72,0.00,,---,0.00,VWS V14.01,2013-01-01 09:51:00,
2013-01-01 04:56:00,42.2,33.5,30.02,WNW,293,0.0,0.0,71,0.00,,---,0.00,VWS V14.01,2013-01-01 09:56:00,
2013-01-01 05:00:00,42.2,33.8,30.02,WNW,294,0.0,0.0,72,0.00,,---,0.00,VWS V14.01,2013-01-01 10:00:00,
2013-01-01 05:01:00,42.2,33.5,30.02,WNW,294,0.0,0.0,71,0.00,,---,0.00,VWS V14.01,2013-01-01 10:01:00,
2013-01-01 05:06:00,42.2,33.8,30.02,WNW,293,0.0,0.0,72,0.00,,---,0.00,VWS V14.01,2013-01-01 10:06:00,
2013-01-01 05:11:00,42.2,32.8,30.02,WNW,293,0.0,0.0,69,0.00,,---,0.00,VWS V14.01,2013-01-01 10:11:00,
2013-01-01 05:16:00,42.3,32.9,30.03,WNW,294,0.0,0.0,69,0.00,,---,0.00,VWS V14.01,2013-01-01 10:16:00,
2013-01-01 05:21:00,42.5,32.7,30.04,WNW,294,0.0,0.0,68,0.00,,---,0.00,VWS V14.01,2013-01-01 10:21:00,
2013-01-01 05:26:00,42.7,33.2,30.04,WNW,294,0.0,0.0,69,0.00,,---,0.00,VWS V14.01,2013-01-01 10:26:00,
2013-01-01 05:30:00,42.7,32.9,30.04,WNW,294,0.0,0.0,68,0.00,,---,0.00,VWS V14.01,2013-01-01 10:30:00,
2013-01-01 05:31:00,42.8,33.7,30.04,WNW,294,0.0,0.0,70,0.00,,---,0.00,VWS V14.01,2013-01-01 10:31:00,
2013-01-01 05:36:00,42.7,34.0,30.05,WNW,293,0.0,0.0,71,0.00,,---,0.00,VWS V14.01,2013-01-01 10:36:00,
2013-01-01 05:41:00,42.6,33.9,30.05,WNW,294,0.0,0.0,71,0.00,,---,0.00,VWS V14.01,2013-01-01 10:41:00,
2013-01-01 05:46:00,42.7,35.3,30.04,WNW,293,0.0,0.0,75,0.00,,---,0.00,VWS V14.01,2013-01-01 10:46:00,
2013-01-01 05:51:00,42.7,35.0,30.04,WNW,294,0.0,0.0,74,0.00,,---,0.00,VWS V14.01,2013-01-01 10:51:00,
2013-01-01 05:56:00,42.6,34.2,30.03,WNW,289,0.0,0.0,72,0.00,,---,0.00,VWS V14.01,2013-01-01 10:56:00,
2013-01-01 06:00:00,42.6,33.9,30.04,WNW,290,0.0,0.0,71,0.00,,---,0.00,VWS V14.01,2013-01-01 11:00:00,
2013-01-01 06:01:00,42.8,33.0,30.04,West,271,1.0,1.0,68,0.00,,---,0.00,VWS V14.01,2013-01-01 11:01:00,
2013-01-01 06:06:00,43.3,34.9,30.04,West,270,0.0,1.0,72,0.00,,---,0.00,VWS V14.01,2013-01-01 11:06:00,
2013-01-01 06:11:00,43.3,34.9,30.03,West,270,0.0,1.0,72,0.00,,---,0.00,VWS V14.01,2013-01-01 11:11:00,
2013-01-01 06:16:00,43.1,34.0,30.03,West,271,0.0,1.0,70,0.00,,---,0.00,VWS V14.01,2013-01-01 11:16:00,
2013-01-01 06:21:00,43.1,34.7,30.02,West,270,0.0,1.0,72,0.00,,---,0.00,VWS V14.01,2013-01-01 11:21:00,
2013-01-01 06:26:00,42.9,34.2,30.04,West,271,0.0,0.0,71,0.00,,---,0.00,VWS V14.01,2013-01-01 11:26:00,
2013-01-01 06:30:00,42.9,34.2,30.03,West,270,0.0,1.0,71,0.00,,---,0.00,VWS V14.01,2013-01-01 11:30:00,
2013-01-01 06:31:00,42.8,34.8,30.04,West,271,0.0,0.0,73,0.00,,---,0.00,VWS V14.01,2013-01-01 11:31:00,
2013-01-01 06:36:00,42.8,33.7,30.05,West,269,1.0,1.0,70,0.00,,---,0.00,VWS V14.01,2013-01-01 11:36:00,
2013-01-01 06:41:00,42.9,33.4,30.04,SW,234,0.0,1.0,69,0.00,,---,0.00,VWS V14.01,2013-01-01 11:41:00,
2013-01-01 06:47:00,43.1,34.0,30.04,SW,234,0.0,1.0,70,0.00,,---,0.00,VWS V14.01,2013-01-01 11:47:00,
2013-01-01 06:52:00,43.2,34.1,30.04,SW,234,0.0,1.0,70,0.00,,---,0.00,VWS V14.01,2013-01-01 11:52:00,
2013-01-01 06:57:00,43.2,33.4,30.05,SW,234,0.0,0.0,68,0.00,,---,0.00,VWS V14.01,2013-01-01 11:57:00,
2013-01-01 07:00:00,43.2,33.7,30.05,SW,235,0.0,1.0,69,0.00,,---,0.00,VWS V14.01,2013-01-01 12:00:00,
2013-01-01 07:02:00,43.3,33.5,30.05,SW,226,0.0,0.0,68,0.00,,---,0.00,VWS V14.01,2013-01-01 12:02:00,
2013-01-01 07:07:00,43.5,33.7,30.05,South,178,1.0,1.0,68,0.00,,---,0.00,VWS V14.01,2013-01-01 12:07:00,
2013-01-01 07:12:00,43.6,33.8,30.05,South,178,0.0,1.0,68,0.00,,---,0.00,VWS V14.01,2013-01-01 12:12:00,
2013-01-01 07:17:00,43.6,33.8,30.06,WSW,244,1.0,1.0,68,0.00,,---,0.00,VWS V14.01,2013-01-01 12:17:00,
2013-01-01 07:22:00,43.7,33.1,30.06,SW,232,0.0,1.0,66,0.00,,---,0.00,VWS V14.01,2013-01-01 12:22:00,
2013-01-01 07:27:00,43.9,33.3,30.06,SW,232,0.0,0.0,66,0.00,,---,0.00,VWS V14.01,2013-01-01 12:27:00,
2013-01-01 07:30:00,43.9,33.3,30.06,SW,232,0.0,1.0,66,0.00,,---,0.00,VWS V14.01,2013-01-01 12:30:00,
2013-01-01 07:32:00,43.9,33.7,30.06,SW,219,0.0,1.0,67,0.00,,---,0.00,VWS V14.01,2013-01-01 12:32:00,
2013-01-01 07:37:00,43.9,33.3,30.05,SSE,149,0.0,1.0,66,0.00,,---,0.00,VWS V14.01,2013-01-01 12:37:00,
2013-01-01 07:42:00,43.8,33.6,30.05,SSE,150,0.0,1.0,67,0.00,,---,0.00,VWS V14.01,2013-01-01 12:42:00,
2013-01-01 07:47:00,43.8,33.6,30.06,South,172,1.0,1.0,67,0.00,,---,0.00,VWS V14.01,2013-01-01 12:47:00,
2013-01-01 07:52:00,43.9,33.7,30.06,South,187,0.0,1.0,67,0.00,,---,0.00,VWS V14.01,2013-01-01 12:52:00,
2013-01-01 07:57:00,43.9,33.3,30.05,SW,225,1.0,1.0,66,0.00,,---,0.00,VWS V14.01,2013-01-01 12:57:00,
2013-01-01 08:00:00,43.9,33.3,30.05,South,171,0.0,1.0,66,0.00,,---,0.00,VWS V14.01,2013-01-01 13:00:00,
2013-01-01 08:02:00,43.9,33.3,30.05,SSW,213,1.0,1.0,66,0.00,,---,0.00,VWS V14.01,2013-01-01 13:02:00,
2013-01-01 08:07:00,43.9,33.7,30.05,SSW,213,0.0,1.0,67,0.00,,---,0.00,VWS V14.01,2013-01-01 13:07:00,
2013-01-01 08:12:00,43.9,33.7,30.05,SW,221,1.0,4.0,67,0.00,,---,0.00,VWS V14.01,2013-01-01 13:12:00,
2013-01-01 08:17:00,44.0,33.8,30.05,SSE,167,0.0,4.0,67,0.00,,---,0.00,VWS V14.01,2013-01-01 13:17:00,
2013-01-01 08:22:00,44.1,33.5,30.05,South,173,0.0,4.0,66,0.00,,---,0.00,VWS V14.01,2013-01-01 13:22:00,
2013-01-01 08:27:00,44.1,34.2,30.05,SE,142,0.0,3.0,68,0.00,,---,0.00,VWS V14.01,2013-01-01 13:27:00,
2013-01-01 08:30:00,44.1,34.6,30.05,WSW,237,2.0,4.0,69,0.00,,---,0.00,VWS V14.01,2013-01-01 13:30:00,
2013-01-01 08:32:00,44.1,34.6,30.04,SSE,161,2.0,6.0,69,0.00,,---,0.00,VWS V14.01,2013-01-01 13:32:00,
2013-01-01 08:37:00,44.0,34.5,30.04,SSE,157,2.0,6.0,69,0.00,,---,0.00,VWS V14.01,2013-01-01 13:37:00,
2013-01-01 08:42:00,43.9,35.5,30.04,NNE,19,1.0,6.0,72,0.00,,---,0.00,VWS V14.01,2013-01-01 13:42:00,
2013-01-01 08:47:00,43.6,35.9,30.05,SW,232,0.0,6.0,74,0.00,,---,0.00,VWS V14.01,2013-01-01 13:47:00,
2013-01-01 08:52:00,43.4,36.3,30.05,West,263,0.0,6.0,76,0.01,,---,0.01,VWS V14.01,2013-01-01 13:52:00,
2013-01-01 08:57:00,43.1,36.4,30.05,West,262,0.0,0.0,77,0.01,,---,0.01,VWS V14.01,2013-01-01 13:57:00,
2013-01-01 09:00:00,43.2,36.5,30.05,West,263,0.0,6.0,77,0.01,,---,0.01,VWS V14.01,2013-01-01 14:00:00,
2013-01-01 09:02:00,43.0,37.3,30.05,West,263,0.0,0.0,80,0.01,,---,0.01,VWS V14.01,2013-01-01 14:02:00,
2013-01-01 09:07:00,42.8,37.4,30.05,West,264,0.0,0.0,81,0.01,,---,0.01,VWS V14.01,2013-01-01 14:07:00,
2013-01-01 09:12:00,42.5,37.7,30.06,West,264,0.0,1.0,83,0.02,,---,0.02,VWS V14.01,2013-01-01 14:12:00,
2013-01-01 09:17:00,42.3,37.8,30.06,West,264,0.0,1.0,84,0.02,,---,0.02,VWS V14.01,2013-01-01 14:17:00,
2013-01-01 09:22:00,42.2,38.0,30.06,West,264,0.0,1.0,85,0.02,,---,0.02,VWS V14.01,2013-01-01 14:22:00,
2013-01-01 09:27:00,42.2,38.6,30.06,West,264,0.0,0.0,87,0.02,,---,0.02,VWS V14.01,2013-01-01 14:27:00,
2013-01-01 09:30:00,42.2,38.3,30.06,West,264,0.0,1.0,86,0.02,,---,0.02,VWS V14.01,2013-01-01 14:30:00,
2013-01-01 09:32:00,42.1,38.5,30.06,SSE,161,1.0,1.0,87,0.02,,---,0.02,VWS V14.01,2013-01-01 14:32:00,
2013-01-01 09:37:00,42.1,38.8,30.06,SSE,159,1.0,1.0,88,0.02,,---,0.02,VWS V14.01,2013-01-01 14:37:00,
2013-01-01 09:42:00,42.1,39.1,30.05,South,180,1.0,2.0,89,0.03,,---,0.03,VWS V14.01,2013-01-01 14:42:00,
2013-01-01 09:47:00,42.2,39.2,30.05,South,186,0.0,2.0,89,0.03,,---,0.03,VWS V14.01,2013-01-01 14:47:00,
2013-01-01 09:52:00,42.3,39.0,30.06,SW,223,3.0,3.0,88,0.03,,---,0.03,VWS V14.01,2013-01-01 14:52:00,
2013-01-01 09:57:00,42.4,39.1,30.05,WNW,288,0.0,1.0,88,0.02,,---,0.03,VWS V14.01,2013-01-01 14:57:00,
2013-01-01 10:00:00,42.4,39.1,30.05,WNW,288,1.0,4.0,88,0.03,,---,0.03,VWS V14.01,2013-01-01 15:00:00,
2013-01-01 10:02:00,42.6,39.3,30.05,SSE,148,0.0,2.0,88,0.02,,---,0.03,VWS V14.01,2013-01-01 15:02:00,
2013-01-01 10:07:00,42.7,39.4,30.05,South,191,0.0,3.0,88,0.02,,---,0.03,VWS V14.01,2013-01-01 15:07:00,
2013-01-01 10:12:00,42.8,39.5,30.05,SW,232,0.0,3.0,88,0.02,,---,0.03,VWS V14.01,2013-01-01 15:12:00,
2013-01-01 10:17:00,42.9,39.6,30.05,South,178,2.0,4.0,88,0.02,,---,0.03,VWS V14.01,2013-01-01 15:17:00,
2013-01-01 10:22:00,43.0,39.4,30.04,SW,232,1.0,5.0,87,0.02,,---,0.03,VWS V14.01,2013-01-01 15:22:00,
2013-01-01 10:27:00,43.2,39.9,30.04,South,184,2.0,2.0,88,0.01,,---,0.03,VWS V14.01,2013-01-01 15:27:00,
2013-01-01 10:30:00,43.1,39.8,30.05,SSW,198,1.0,8.0,88,0.02,,---,0.03,VWS V14.01,2013-01-01 15:30:00,
2013-01-01 10:33:00,43.3,40.0,30.04,WSW,249,5.0,6.0,88,0.01,,---,0.03,VWS V14.01,2013-01-01 15:33:00,
2013-01-01 10:38:00,43.3,40.0,30.03,SSE,160,2.0,9.0,88,0.01,,---,0.03,VWS V14.01,2013-01-01 15:38:00,
2013-01-01 10:43:00,43.4,40.4,30.01,SSW,208,1.0,9.0,89,0.01,,---,0.03,VWS V14.01,2013-01-01 15:43:00,
2013-01-01 10:48:00,43.4,40.7,30.00,SW,222,5.0,9.0,90,0.02,,---,0.04,VWS V14.01,2013-01-01 15:48:00,
2013-01-01 10:53:00,43.5,41.0,30.01,South,178,1.0,9.0,91,0.02,,---,0.04,VWS V14.01,2013-01-01 15:53:00,
2013-01-01 10:58:00,43.6,40.9,30.01,WSW,246,1.0,5.0,90,0.01,,---,0.04,VWS V14.01,2013-01-01 15:58:00,
2013-01-01 11:00:00,43.5,41.0,30.01,SSW,205,5.0,9.0,91,0.02,,---,0.04,VWS V14.01,2013-01-01 16:00:00,
2013-01-01 11:03:00,43.7,41.0,30.01,West,272,6.0,6.0,90,0.01,,---,0.04,VWS V14.01,2013-01-01 16:03:00,
2013-01-01 11:08:00,44.0,41.3,30.01,SSW,211,4.0,8.0,90,0.01,,---,0.04,VWS V14.01,2013-01-01 16:08:00,
2013-01-01 11:13:00,44.3,41.6,30.01,WNW,291,4.0,8.0,90,0.01,,---,0.04,VWS V14.01,2013-01-01 16:13:00,
2013-01-01 11:18:00,44.4,41.7,30.01,WSW,254,4.0,8.0,90,0.01,,---,0.04,VWS V14.01,2013-01-01 16:18:00,
2013-01-01 11:23:00,44.6,41.8,30.00,West,260,1.0,8.0,90,0.01,,---,0.04,VWS V14.01,2013-01-01 16:23:00,
2013-01-01 11:28:00,44.8,41.8,29.99,South,182,2.0,5.0,89,0.01,,---,0.04,VWS V14.01,2013-01-01 16:28:00,
2013-01-01 11:30:00,44.7,41.7,29.99,SSW,203,2.0,8.0,89,0.01,,---,0.04,VWS V14.01,2013-01-01 16:30:00,
2013-01-01 11:33:00,45.0,42.0,29.99,SSE,159,1.0,10.0,89,0.01,,---,0.04,VWS V14.01,2013-01-01 16:33:00,
2013-01-01 11:38:00,45.1,42.1,29.99,NW,305,5.0,10.0,89,0.01,,---,0.04,VWS V14.01,2013-01-01 16:38:00,
2013-01-01 11:43:00,45.2,42.2,29.98,South,190,5.0,10.0,89,0.01,,---,0.04,VWS V14.01,2013-01-01 16:43:00,
2013-01-01 11:48:00,45.2,42.2,29.97,SSW,202,3.0,10.0,89,0.01,,---,0.04,VWS V14.01,2013-01-01 16:48:00,
2013-01-01 11:53:00,45.2,42.2,29.96,South,182,4.0,11.0,89,0.01,,---,0.04,VWS V14.01,2013-01-01 16:53:00,
2013-01-01 11:58:00,45.2,42.2,29.95,SSW,206,2.0,6.0,89,0.00,,---,0.04,VWS V14.01,2013-01-01 16:58:00,
2013-01-01 12:00:00,45.2,42.2,29.96,WSW,240,5.0,11.0,89,0.01,,---,0.04,VWS V14.01,2013-01-01 17:00:00,
2013-01-01 12:03:00,45.3,42.3,29.96,SW,233,11.0,11.0,89,0.00,,---,0.04,VWS V14.01,2013-01-01 17:03:00,
2013-01-01 12:08:00,45.4,42.3,29.96,SSE,168,5.0,11.0,89,0.00,,---,0.04,VWS V14.01,2013-01-01 17:08:00,
2013-01-01 12:13:00,45.4,42.1,29.95,SW,214,7.0,11.0,88,0.00,,---,0.04,VWS V14.01,2013-01-01 17:13:00,
2013-01-01 12:18:00,45.5,42.2,29.95,SW,215,9.0,11.0,88,0.00,,---,0.04,VWS V14.01,2013-01-01 17:18:00,
2013-01-01 12:23:00,45.5,42.2,29.95,South,182,9.0,11.0,88,0.00,,---,0.04,VWS V14.01,2013-01-01 17:23:00,
2013-01-01 12:28:00,45.5,42.2,29.94,South,171,4.0,4.0,88,0.00,,---,0.04,VWS V14.01,2013-01-01 17:28:00,
2013-01-01 12:30:00,45.5,42.2,29.94,ENE,70,3.0,11.0,88,0.00,,---,0.04,VWS V14.01,2013-01-01 17:30:00,
2013-01-01 12:33:00,45.5,42.2,29.93,SSW,198,2.0,6.0,88,0.00,,---,0.04,VWS V14.01,2013-01-01 17:33:00,
2013-01-01 12:38:00,45.6,42.5,29.94,WSW,246,5.0,6.0,89,0.00,,---,0.04,VWS V14.01,2013-01-01 17:38:00,
2013-01-01 12:43:00,45.6,42.5,29.92,West,259,1.0,6.0,89,0.00,,---,0.04,VWS V14.01,2013-01-01 17:43:00,
2013-01-01 12:48:00,45.6,42.5,29.93,SSE,155,1.0,7.0,89,0.00,,---,0.04,VWS V14.01,2013-01-01 17:48:00,
2013-01-01 12:53:00,45.7,42.7,29.93,West,261,5.0,7.0,89,0.00,,---,0.04,VWS V14.01,2013-01-01 17:53:00,
2013-01-01 12:58:00,45.8,42.8,29.94,SW,218,4.0,4.0,89,0.00,,---,0.04,VWS V14.01,2013-01-01 17:58:00,
2013-01-01 13:00:00,45.8,42.8,29.93,WSW,245,0.0,7.0,89,0.00,,---,0.04,VWS V14.01,2013-01-01 18:00:00,
2013-01-01 13:03:00,45.9,42.8,29.94,WSW,242,1.0,5.0,89,0.00,,---,0.04,VWS V14.01,2013-01-01 18:03:00,
2013-01-01 13:08:00,46.0,43.0,29.95,West,272,2.0,5.0,89,0.00,,---,0.04,VWS V14.01,2013-01-01 18:08:00,
2013-01-01 13:13:00,46.0,43.0,29.95,NW,322,0.0,5.0,89,0.00,,---,0.04,VWS V14.01,2013-01-01 18:13:00,
2013-01-01 13:18:00,46.1,43.3,29.96,NW,310,1.0,5.0,90,0.00,,---,0.04,VWS V14.01,2013-01-01 18:18:00,
2013-01-01 13:23:00,46.2,43.4,29.95,SSW,211,2.0,5.0,90,0.00,,---,0.04,VWS V14.01,2013-01-01 18:23:00,
2013-01-01 13:28:00,46.2,43.4,29.95,NW,315,2.0,4.0,90,0.00,,---,0.04,VWS V14.01,2013-01-01 18:28:00,
2013-01-01 13:30:00,46.2,43.4,29.95,SW,229,1.0,5.0,90,0.00,,---,0.04,VWS V14.01,2013-01-01 18:30:00,
2013-01-01 13:33:00,46.3,43.5,29.95,WSW,245,3.0,4.0,90,0.00,,---,0.04,VWS V14.01,2013-01-01 18:33:00,
2013-01-01 13:38:00,46.3,43.8,29.95,WNW,291,5.0,5.0,91,0.00,,---,0.04,VWS V14.01,2013-01-01 18:38:00,
2013-01-01 13:43:00,46.3,43.8,29.95,West,276,0.0,5.0,91,0.00,,---,0.04,VWS V14.01,2013-01-01 18:43:00,
2013-01-01 13:48:00,46.4,44.2,29.95,SSW,203,0.0,7.0,92,0.00,,---,0.04,VWS V14.01,2013-01-01 18:48:00,
2013-01-01 13:53:00,46.4,44.2,29.94,WNW,286,7.0,7.0,92,0.00,,---,0.04,VWS V14.01,2013-01-01 18:53:00,
2013-01-01 13:58:00,46.4,44.2,29.94,West,267,3.0,8.0,92,0.00,,---,0.04,VWS V14.01,2013-01-01 18:58:00,
2013-01-01 14:00:00,46.4,44.2,29.94,SW,217,4.0,7.0,92,0.00,,---,0.04,VWS V14.01,2013-01-01 19:00:00,
2013-01-01 14:03:00,46.4,44.2,29.94,SSW,203,2.0,8.0,92,0.00,,---,0.04,VWS V14.01,2013-01-01 19:03:00,
2013-01-01 14:08:00,46.4,44.5,29.93,West,259,2.0,8.0,93,0.00,,---,0.04,VWS V14.01,2013-01-01 19:08:00,
2013-01-01 14:13:00,46.4,44.5,29.93,South,184,1.0,8.0,93,0.00,,---,0.04,VWS V14.01,2013-01-01 19:13:00,
2013-01-01 14:18:00,46.4,44.5,29.93,SSW,209,1.0,8.0,93,0.01,,---,0.05,VWS V14.01,2013-01-01 19:18:00,
2013-01-01 14:23:00,46.4,44.5,29.92,WSW,238,2.0,8.0,93,0.01,,---,0.05,VWS V14.01,2013-01-01 19:23:00,
2013-01-01 14:28:00,46.5,44.6,29.92,South,186,5.0,6.0,93,0.01,,---,0.05,VWS V14.01,2013-01-01 19:28:00,
2013-01-01 14:30:00,46.5,44.6,29.93,West,263,5.0,8.0,93,0.01,,---,0.05,VWS V14.01,2013-01-01 19:30:00,
2013-01-01 14:34:00,46.5,44.6,29.92,WSW,239,2.0,6.0,93,0.01,,---,0.05,VWS V14.01,2013-01-01 19:34:00,
2013-01-01 14:39:00,46.6,45.0,29.92,SW,233,2.0,6.0,94,0.01,,---,0.05,VWS V14.01,2013-01-01 19:39:00,
2013-01-01 14:44:00,46.7,45.1,29.92,NNW,348,1.0,7.0,94,0.01,,---,0.05,VWS V14.01,2013-01-01 19:44:00,
2013-01-01 14:49:00,46.8,45.2,29.93,NE,52,1.0,7.0,94,0.01,,---,0.05,VWS V14.01,2013-01-01 19:49:00,
2013-01-01 14:54:00,47.0,45.4,29.93,ENE,67,1.0,7.0,94,0.01,,---,0.05,VWS V14.01,2013-01-01 19:54:00,
2013-01-01 14:59:00,47.1,45.5,29.93,WSW,237,1.0,2.0,94,0.01,,---,0.05,VWS V14.01,2013-01-01 19:59:00,
2013-01-01 15:00:00,47.0,45.4,29.93,SSE,158,0.0,7.0,94,0.01,,---,0.05,VWS V14.01,2013-01-01 20:00:00,
2013-01-01 15:04:00,47.2,45.6,29.92,South,183,4.0,5.0,94,0.01,,---,0.05,VWS V14.01,2013-01-01 20:04:00,
2013-01-01 15:09:00,47.2,45.6,29.92,SSW,213,3.0,5.0,94,0.01,,---,0.05,VWS V14.01,2013-01-01 20:09:00,
2013-01-01 15:14:00,47.3,45.7,29.92,South,183,2.0,6.0,94,0.01,,---,0.05,VWS V14.01,2013-01-01 20:14:00,
2013-01-01 15:19:00,47.3,45.7,29.92,South,190,1.0,6.0,94,0.02,,---,0.06,VWS V14.01,2013-01-01 20:19:00,
2013-01-01 15:24:00,47.4,45.8,29.91,SSE,164,2.0,6.0,94,0.02,,---,0.06,VWS V14.01,2013-01-01 20:24:00,
2013-01-01 15:29:00,47.5,46.1,29.91,South,176,1.0,4.0,95,0.01,,---,0.06,VWS V14.01,2013-01-01 20:29:00,
2013-01-01 15:30:00,47.4,46.0,29.91,SSE,156,2.0,6.0,95,0.02,,---,0.06,VWS V14.01,2013-01-01 20:30:00,
2013-01-01 15:34:00,47.6,46.2,29.91,SSE,167,2.0,4.0,95,0.01,,---,0.06,VWS V14.01,2013-01-01 20:34:00,
2013-01-01 15:39:00,47.7,46.3,29.92,NNE,17,1.0,5.0,95,0.01,,---,0.06,VWS V14.01,2013-01-01 20:39:00,
2013-01-01 15:44:00,47.8,46.4,29.92,NNW,331,1.0,5.0,95,0.01,,---,0.06,VWS V14.01,2013-01-01 20:44:00,
2013-01-01 15:49:00,47.9,46.5,29.91,South,171,1.0,5.0,95,0.01,,---,0.06,VWS V14.01,2013-01-01 20:49:00,
2013-01-01 15:54:00,48.0,46.6,29.91,NW,313,0.0,5.0,95,0.01,,---,0.06,VWS V14.01,2013-01-01 20:54:00,
2013-01-01 15:59:00,48.0,46.6,29.91,SW,234,1.0,4.0,95,0.01,,---,0.06,VWS V14.01,2013-01-01 20:59:00,
2013-01-01 16:00:00,48.0,46.6,29.91,SE,127,0.0,5.0,95,0.01,,---,0.06,VWS V14.01,2013-01-01 21:00:00,
2013-01-01 16:04:00,48.1,46.7,29.91,SSW,199,2.0,4.0,95,0.01,,---,0.06,VWS V14.01,2013-01-01 21:04:00,
2013-01-01 16:09:00,48.2,46.8,29.91,SSW,213,4.0,7.0,95,0.02,,---,0.07,VWS V14.01,2013-01-01 21:09:00,
2013-01-01 16:14:00,48.3,46.9,29.91,SSW,209,2.0,7.0,95,0.02,,---,0.07,VWS V14.01,2013-01-01 21:14:00,
2013-01-01 16:19:00,48.3,46.9,29.91,WSW,253,4.0,7.0,95,0.02,,---,0.07,VWS V14.01,2013-01-01 21:19:00,
2013-01-01 16:24:00,48.4,47.0,29.93,NNW,345,5.0,7.0,95,0.02,,---,0.07,VWS V14.01,2013-01-01 21:24:00,
2013-01-01 16:29:00,48.4,47.0,29.93,NNE,20,2.0,2.0,95,0.01,,---,0.07,VWS V14.01,2013-01-01 21:29:00,
2013-01-01 16:30:00,48.4,47.0,29.93,NE,40,2.0,7.0,95,0.02,,---,0.07,VWS V14.01,2013-01-01 21:30:00,
2013-01-01 16:34:00,48.4,47.0,29.93,NNE,16,0.0,2.0,95,0.01,,---,0.07,VWS V14.01,2013-01-01 21:34:00,
2013-01-01 16:39:00,48.5,47.1,29.94,NNW,340,0.0,2.0,95,0.01,,---,0.07,VWS V14.01,2013-01-01 21:39:00,
2013-01-01 16:44:00,48.5,47.1,29.94,North,11,0.0,2.0,95,0.01,,---,0.07,VWS V14.01,2013-01-01 21:44:00,
2013-01-01 16:49:00,48.5,47.1,29.94,NNW,340,0.0,2.0,95,0.01,,---,0.07,VWS V14.01,2013-01-01 21:49:00,
2013-01-01 16:54:00,48.4,47.0,29.94,NNW,339,0.0,2.0,95,0.01,,---,0.07,VWS V14.01,2013-01-01 21:54:00,
2013-01-01 16:59:00,48.4,47.0,29.95,NNW,339,0.0,0.0,95,0.02,,---,0.08,VWS V14.01,2013-01-01 21:59:00,
2013-01-01 17:00:00,48.4,47.0,29.95,NNW,339,0.0,2.0,95,0.01,,---,0.07,VWS V14.01,2013-01-01 22:00:00,
2013-01-01 17:04:00,48.3,46.9,29.94,NNW,339,0.0,0.0,95,0.02,,---,0.08,VWS V14.01,2013-01-01 22:04:00,
2013-01-01 17:09:00,48.3,46.9,29.94,NNW,339,0.0,0.0,95,0.02,,---,0.08,VWS V14.01,2013-01-01 22:09:00,
2013-01-01 17:14:00,48.2,46.8,29.94,NNW,339,0.0,0.0,95,0.02,,---,0.08,VWS V14.01,2013-01-01 22:14:00,
2013-01-01 17:19:00,48.1,46.7,29.94,NNW,339,0.0,0.0,95,0.02,,---,0.08,VWS V14.01,2013-01-01 22:19:00,
2013-01-01 17:24:00,48.0,46.6,29.95,NNW,339,0.0,0.0,95,0.03,,---,0.09,VWS V14.01,2013-01-01 22:24:00,
2013-01-01 17:29:00,48.0,46.6,29.95,NNW,340,0.0,0.0,95,0.02,,---,0.09,VWS V14.01,2013-01-01 22:29:00,
2013-01-01 17:30:00,48.0,46.6,29.94,NNW,339,0.0,0.0,95,0.03,,---,0.09,VWS V14.01,2013-01-01 22:30:00,
2013-01-01 17:34:00,47.9,46.5,29.94,NNW,339,0.0,0.0,95,0.02,,---,0.09,VWS V14.01,2013-01-01 22:34:00,
2013-01-01 17:39:00,47.8,46.4,29.94,NNW,338,0.0,0.0,95,0.03,,---,0.10,VWS V14.01,2013-01-01 22:39:00,
2013-01-01 17:44:00,47.7,46.3,29.94,NNW,338,0.0,0.0,95,0.03,,---,0.10,VWS V14.01,2013-01-01 22:44:00,
2013-01-01 17:49:00,47.7,46.6,29.94,NNW,338,0.0,0.0,96,0.03,,---,0.10,VWS V14.01,2013-01-01 22:49:00,
2013-01-01 17:54:00,47.8,46.7,29.94,SW,225,0.0,1.0,96,0.03,,---,0.10,VWS V14.01,2013-01-01 22:54:00,
2013-01-01 17:59:00,47.9,46.8,29.95,SW,221,0.0,2.0,96,0.04,,---,0.11,VWS V14.01,2013-01-01 22:59:00,
2013-01-01 18:00:00,47.8,46.7,29.95,South,177,0.0,1.0,96,0.03,,---,0.10,VWS V14.01,2013-01-01 23:00:00,
2013-01-01 18:04:00,48.0,46.9,29.95,West,259,1.0,2.0,96,0.04,,---,0.11,VWS V14.01,2013-01-01 23:04:00,
2013-01-01 18:09:00,48.1,47.0,29.95,West,280,0.0,2.0,96,0.04,,---,0.11,VWS V14.01,2013-01-01 23:09:00,
2013-01-01 18:14:00,48.1,47.0,29.96,NNE,24,0.0,2.0,96,0.04,,---,0.11,VWS V14.01,2013-01-01 23:14:00,
2013-01-01 18:19:00,48.2,47.1,29.96,NW,319,1.0,3.0,96,0.04,,---,0.11,VWS V14.01,2013-01-01 23:19:00,
2013-01-01 18:24:00,48.2,47.1,29.96,WNW,291,0.0,3.0,96,0.05,,---,0.12,VWS V14.01,2013-01-01 23:24:00,
2013-01-01 18:29:00,48.3,47.2,29.96,SW,236,1.0,1.0,96,0.03,,---,0.12,VWS V14.01,2013-01-01 23:29:00,
2013-01-01 18:30:00,48.3,47.2,29.96,SSE,161,1.0,3.0,96,0.05,,---,0.12,VWS V14.01,2013-01-01 23:30:00,
2013-01-01 18:34:00,48.3,47.2,29.96,SW,230,1.0,1.0,96,0.03,,---,0.12,VWS V14.01,2013-01-01 23:34:00,
2013-01-01 18:39:00,48.3,47.2,29.95,WSW,248,1.0,1.0,96,0.03,,---,0.12,VWS V14.01,2013-01-01 23:39:00,
2013-01-01 18:44:00,48.3,47.2,29.95,WSW,248,0.0,1.0,96,0.04,,---,0.13,VWS V14.01,2013-01-01 23:44:00,
2013-01-01 18:49:00,48.3,47.2,29.95,West,260,0.0,1.0,96,0.04,,---,0.13,VWS V14.01,2013-01-01 23:49:00,
2013-01-01 18:54:00,48.4,47.3,29.95,West,259,0.0,1.0,96,0.04,,---,0.13,VWS V14.01,2013-01-01 23:54:00,
2013-01-01 18:59:00,48.4,47.3,29.95,SSE,165,0.0,0.0,96,0.03,,---,0.13,VWS V14.01,2013-01-01 23:59:00,
2013-01-01 19:00:00,48.4,47.3,29.95,West,259,0.0,1.0,96,0.04,,---,0.13,VWS V14.01,2013-01-02 00:00:00,
2013-01-01 19:04:00,48.4,47.3,29.96,WSW,237,0.0,0.0,96,0.03,,---,0.13,VWS V14.01,2013-01-02 00:04:00,
2013-01-01 19:09:00,48.5,47.4,29.95,West,281,0.0,0.0,96,0.03,,---,0.13,VWS V14.01,2013-01-02 00:09:00,
2013-01-01 19:14:00,48.5,47.4,29.95,WNW,283,0.0,0.0,96,0.03,,---,0.13,VWS V14.01,2013-01-02 00:14:00,
2013-01-01 19:19:00,48.5,47.4,29.96,WNW,283,0.0,0.0,96,0.03,,---,0.13,VWS V14.01,2013-01-02 00:19:00,
2013-01-01 19:24:00,48.5,47.4,29.96,West,279,0.0,0.0,96,0.04,,---,0.14,VWS V14.01,2013-01-02 00:24:00,
2013-01-01 19:29:00,48.6,47.5,29.96,WNW,295,0.0,1.0,96,0.02,,---,0.14,VWS V14.01,2013-01-02 00:29:00,
2013-01-01 19:30:00,48.5,47.4,29.96,WNW,286,1.0,1.0,96,0.04,,---,0.14,VWS V14.01,2013-01-02 00:30:00,
2013-01-01 19:34:00,48.6,47.5,29.96,WNW,296,0.0,1.0,96,0.02,,---,0.14,VWS V14.01,2013-01-02 00:34:00,
2013-01-01 19:39:00,48.7,47.6,29.96,WNW,291,0.0,1.0,96,0.02,,---,0.14,VWS V14.01,2013-01-02 00:39:00,
2013-01-01 19:44:00,48.7,47.6,29.96,WSW,258,2.0,2.0,96,0.02,,---,0.14,VWS V14.01,2013-01-02 00:44:00,
2013-01-01 19:49:00,48.7,47.6,29.96,South,186,0.0,2.0,96,0.02,,---,0.14,VWS V14.01,2013-01-02 00:49:00,
2013-01-01 19:54:00,48.7,47.6,29.95,South,183,0.0,2.0,96,0.03,,---,0.15,VWS V14.01,2013-01-02 00:54:00,
2013-01-01 19:59:00,48.7,47.6,29.95,ESE,119,0.0,0.0,96,0.02,,---,0.15,VWS V14.01,2013-01-02 00:59:00,
2013-01-01 20:00:00,48.7,47.6,29.95,South,183,0.0,2.0,96,0.03,,---,0.15,VWS V14.01,2013-01-02 01:00:00,
2013-01-01 20:04:00,48.7,47.6,29.96,East,94,0.0,1.0,96,0.02,,---,0.15,VWS V14.01,2013-01-02 01:04:00,
2013-01-01 20:09:00,48.8,47.7,29.96,WNW,289,0.0,1.0,96,0.02,,---,0.15,VWS V14.01,2013-01-02 01:09:00,
2013-01-01 20:14:00,48.8,47.7,29.96,WNW,290,0.0,1.0,96,0.02,,---,0.15,VWS V14.01,2013-01-02 01:14:00,
2013-01-01 20:19:00,48.8,47.7,29.96,WNW,290,0.0,1.0,96,0.02,,---,0.15,VWS V14.01,2013-01-02 01:19:00,
2013-01-01 20:24:00,48.9,47.8,29.96,NNE,30,0.0,1.0,96,0.03,,---,0.16,VWS V14.01,2013-01-02 01:24:00,
2013-01-01 20:29:00,48.9,47.8,29.96,NNE,31,0.0,0.0,96,0.02,,---,0.16,VWS V14.01,2013-01-02 01:29:00,
2013-01-01 20:30:00,48.9,47.8,29.97,NNE,30,0.0,1.0,96,0.03,,---,0.16,VWS V14.01,2013-01-02 01:30:00,
2013-01-01 20:35:00,48.8,47.7,29.96,NNE,27,0.0,0.0,96,0.02,,---,0.16,VWS V14.01,2013-01-02 01:35:00,
2013-01-01 20:40:00,48.8,47.7,29.97,NNE,27,0.0,0.0,96,0.02,,---,0.16,VWS V14.01,2013-01-02 01:40:00,
2013-01-01 20:45:00,48.8,47.7,29.96,NNE,27,0.0,0.0,96,0.02,,---,0.16,VWS V14.01,2013-01-02 01:45:00,
2013-01-01 20:50:00,48.7,47.6,29.96,NNE,27,0.0,0.0,96,0.02,,---,0.16,VWS V14.01,2013-01-02 01:50:00,
2013-01-01 20:55:00,48.7,47.6,29.96,NNE,27,0.0,0.0,96,0.03,,---,0.17,VWS V14.01,2013-01-02 01:55:00,
2013-01-01 21:00:00,48.6,47.5,29.96,NNE,27,0.0,0.0,96,0.02,,---,0.17,VWS V14.01,2013-01-02 02:00:00,
2013-01-01 21:05:00,48.6,47.5,29.95,NNE,27,0.0,0.0,96,0.02,,---,0.17,VWS V14.01,2013-01-02 02:05:00,
2013-01-01 21:10:00,48.5,47.4,29.96,NNE,27,0.0,0.0,96,0.03,,---,0.18,VWS V14.01,2013-01-02 02:10:00,
2013-01-01 21:15:00,48.4,47.3,29.97,NNE,27,0.0,0.0,96,0.03,,---,0.18,VWS V14.01,2013-01-02 02:15:00,
2013-01-01 21:20:00,48.5,47.4,29.97,NNE,27,0.0,0.0,96,0.04,,---,0.19,VWS V14.01,2013-01-02 02:20:00,
2013-01-01 21:25:00,48.4,47.3,29.98,NNE,27,0.0,0.0,96,0.04,,---,0.19,VWS V14.01,2013-01-02 02:25:00,
2013-01-01 21:30:00,48.5,47.4,29.98,NNE,27,0.0,0.0,96,0.03,,---,0.19,VWS V14.01,2013-01-02 02:30:00,
2013-01-01 21:35:00,48.5,47.4,29.97,NNE,27,0.0,0.0,96,0.04,,---,0.20,VWS V14.01,2013-01-02 02:35:00,
2013-01-01 21:40:00,48.5,47.4,29.97,NNE,27,0.0,0.0,96,0.04,,---,0.20,VWS V14.01,2013-01-02 02:40:00,
2013-01-01 21:45:00,48.4,47.3,29.96,NNE,27,0.0,0.0,96,0.05,,---,0.21,VWS V14.01,2013-01-02 02:45:00,
2013-01-01 21:50:00,48.4,47.3,29.97,NNE,27,0.0,0.0,96,0.05,,---,0.21,VWS V14.01,2013-01-02 02:50:00,
2013-01-01 21:55:00,48.3,47.2,29.96,NNE,27,0.0,0.0,96,0.05,,---,0.21,VWS V14.01,2013-01-02 02:55:00,
2013-01-01 22:00:00,48.3,47.2,29.96,NNE,27,0.0,0.0,96,0.04,,---,0.21,VWS V14.01,2013-01-02 03:00:00,
2013-01-01 22:05:00,48.3,47.2,29.96,NNE,27,0.0,0.0,96,0.04,,---,0.21,VWS V14.01,2013-01-02 03:05:00,
2013-01-01 22:10:00,48.3,47.2,29.96,NNE,27,0.0,0.0,96,0.04,,---,0.21,VWS V14.01,2013-01-02 03:10:00,
2013-01-01 22:15:00,48.3,47.2,29.97,NNE,27,0.0,0.0,96,0.04,,---,0.21,VWS V14.01,2013-01-02 03:15:00,
2013-01-01 22:20:00,48.3,47.2,29.95,NNE,27,0.0,0.0,96,0.04,,---,0.21,VWS V14.01,2013-01-02 03:20:00,
2013-01-01 22:25:00,48.2,47.1,29.95,NNE,28,0.0,0.0,96,0.05,,---,0.22,VWS V14.01,2013-01-02 03:25:00,
2013-01-01 22:30:00,48.1,47.0,29.95,NNE,27,0.0,0.0,96,0.03,,---,0.22,VWS V14.01,2013-01-02 03:30:00,
2013-01-01 22:35:00,48.1,47.0,29.95,NNE,27,0.0,0.0,96,0.03,,---,0.22,VWS V14.01,2013-01-02 03:35:00,
2013-01-01 22:40:00,48.0,46.9,29.95,NNE,28,0.0,0.0,96,0.03,,---,0.22,VWS V14.01,2013-01-02 03:40:00,
2013-01-01 22:45:00,47.9,46.8,29.95,NNE,28,0.0,0.0,96,0.03,,---,0.22,VWS V14.01,2013-01-02 03:45:00,
2013-01-01 22:50:00,47.9,46.8,29.95,NNE,27,0.0,0.0,96,0.03,,---,0.22,VWS V14.01,2013-01-02 03:50:00,
2013-01-01 22:55:00,48.0,46.9,29.95,NNE,27,0.0,0.0,96,0.03,,---,0.22,VWS V14.01,2013-01-02 03:55:00,
2013-01-01 23:00:00,48.0,46.9,29.95,NNE,28,0.0,0.0,96,0.01,,---,0.22,VWS V14.01,2013-01-02 04:00:00,
2013-01-01 23:05:00,48.0,46.9,29.95,NNE,28,0.0,0.0,96,0.01,,---,0.22,VWS V14.01,2013-01-02 04:05:00,
2013-01-01 23:10:00,48.0,46.9,29.95,NNE,28,0.0,0.0,96,0.01,,---,0.22,VWS V14.01,2013-01-02 04:10:00,
2013-01-01 23:15:00,48.0,46.9,29.96,NNE,28,0.0,0.0,96,0.02,,---,0.23,VWS V14.01,2013-01-02 04:15:00,
2013-01-01 23:20:00,48.0,46.9,29.96,NNE,28,0.0,0.0,96,0.02,,---,0.23,VWS V14.01,2013-01-02 04:20:00,
2013-01-01 23:25:00,47.9,46.8,29.95,NNE,28,0.0,0.0,96,0.02,,---,0.23,VWS V14.01,2013-01-02 04:25:00,
2013-01-01 23:30:00,47.9,46.8,29.95,NNE,27,0.0,0.0,96,0.01,,---,0.23,VWS V14.01,2013-01-02 04:30:00,
2013-01-01 23:35:00,47.8,46.7,29.95,NNE,28,0.0,0.0,96,0.01,,---,0.23,VWS V14.01,2013-01-02 04:35:00,
2013-01-01 23:40:00,47.8,46.7,29.95,NNE,28,0.0,0.0,96,0.01,,---,0.23,VWS V14.01,2013-01-02 04:40:00,
2013-01-01 23:45:00,47.8,46.7,29.95,NNE,28,0.0,0.0,96,0.01,,---,0.23,VWS V14.01,2013-01-02 04:45:00,
2013-01-01 23:50:00,47.8,46.7,29.95,NNE,28,0.0,0.0,96,0.01,,---,0.23,VWS V14.01,2013-01-02 04:50:00,
2013-01-01 23:55:00,47.7,46.6,29.95,NNE,28,0.0,0.0,96,0.02,,---,0.00,VWS V14.01,2013-01-02 04:55:00,